Content
SEND FEEDBACK

Daily
Averages
Monthly
Summary
Malaysia

KUALA LUMPUR, MALAYSIA


Home > Asia > Malaysia
Elevation: 72 feet     Latitude: 03 07N     Longitude: 101 33E

WEATHER
 
SELECT A DAY
Number of Records: 119,813;   Date Range: 7/19/98 - 7/20/14
 
SHARE

PRINT THIS DATA

[ ← Previous Day ]
WEATHER ALMANAC - FEBRUARY 1, 2013
[ Next Day → ]
[ °C ]   °F
Weather ElementAverageHighLow
Temperature84.7 °F93.2 °F (1:00 pm)77 °F (5:00 am)
Dewpoint73.6 °F77 °F (8:00 pm)69.8 °F (11:00 am)
Humidity71 %94 % (5:00 am)46 % (1:00 pm)
Barometer29.84 in29.92 in (10:00 am)29.74 in (5:00 pm)
Wind Speed4 mph9.2 mph (5:00 pm)
Weather ElementAverage
Visibility5.5 mi
Wind DirectionSSE (173.9 °)

Weather ElementTotal
Precipitation---
Cooling Degree Days20.1 (Base 65)
Growing Degree Days35.1 (Base 50)
Averaged from 23 records on February 1, 2013
WEATHER CONDITIONS BREAKOUT
WIND DIRECTION BREAKOUT
WEATHER BY HOUR - FEBRUARY 1, 2013
[ °C ]   °F
Local TimeTemperatureDewpointHumidityBarometerVisibilityWind DirectionWind SpeedGust SpeedPrecipitationEventsConditions
1:00 AM80.6 °F73.4 °F79 %29.89 in5.6 miWNW (300°)2.3 mphMostly Cloudy
2:00 AM80.6 °F75.2 °F84 %29.89 in3.7 miNNE (30°)1.2 mphMostly Cloudy
3:00 AM78.8 °F73.4 °F83 %29.86 in3.7 miNorth (350°)2.3 mphMostly Cloudy
4:00 AM78.8 °F73.4 °F83 %29.86 in5.0 miNorth (360°)1.2 mphMostly Cloudy
5:00 AM77.0 °F75.2 °F94 %29.83 in5.0 miCalmMostly Cloudy
6:00 AM77.0 °F73.4 °F89 %29.86 in5.0 miNNE (30°)1.2 mphMostly Cloudy
7:00 AM77.0 °F73.4 °F89 %29.86 in4.3 miCalmMostly Cloudy
8:00 AM77.0 °F73.4 °F89 %29.89 in5.0 miWNW (290°)2.3 mphMostly Cloudy
9:00 AM82.4 °F73.4 °F74 %29.89 in6.2 miENE (60°)3.5 mphMostly Cloudy
10:00 AM86.0 °F71.6 °F62 %29.92 in6.2 miNE (50°)3.5 mphMostly Cloudy
11:00 AM89.6 °F69.8 °F52 %29.89 in6.2 miNNE (30°)4.6 mphMostly Cloudy
12:00 PM91.4 °F69.8 °F49 %29.89 in6.2 miNNE (30°)5.8 mphMostly Cloudy
1:00 PM93.2 °F69.8 °F46 %29.83 in6.2 miNNE (30°)5.8 mphMostly Cloudy
2:00 PM93.2 °F69.8 °F46 %29.83 in6.2 miNNE (30°)6.9 mphMostly Cloudy
3:00 PM93.2 °F69.8 °F46 %29.77 in6.2 miNE (40°)4.6 mphMostly Cloudy
4:00 PM93.2 °F75.2 °F56 %29.77 in6.2 miNW (320°)2.3 mphMostly Cloudy
5:00 PM89.6 °F75.2 °F62 %29.74 in6.2 miNNW (330°)9.2 mphMostly Cloudy
6:00 PM89.6 °F75.2 °F62 %29.77 in6.2 miNNW (330°)6.9 mphMostly Cloudy
7:00 PM87.8 °F75.2 °F66 %29.77 in6.2 miNNW (340°)6.9 mphMostly Cloudy
8:00 PM84.2 °F77.0 °F79 %29.80 in6.2 miNNW (330°)4.6 mphMostly Cloudy
9:00 PM84.2 °F77.0 °F79 %29.83 in5.6 miNNW (330°)4.6 mphMostly Cloudy
10:00 PM84.2 °F77.0 °F79 %29.83 in5.6 miNorth (350°)4.6 mphMostly Cloudy
11:00 PM80.6 °F75.2 °F84 %29.89 in3.7 miNE (40°)8.1 mphRainRain
Hourly data recorded from WMSA, located miles away from Kuala Lumpur, Malaysia







STORIES FROM OUR PARTNERS